QPF
0.06 0.04 0.03 0.02 0.02 0.02 0.01 0.00 0.00 0.00 0.00 0.00 0.00 0.00 0.00 0.00 0.00 0.00 0.00 0.00 0.00 0.00 0.00 0.00 0.00 0.00 0.00 0.00 0.00 0.00 0.00 0.00 0.01 0.02 0.02 0.02 0.01 0.02 0.02 0.02 0.02 0.01 0.01
0.06 0.05 0.03 0.01 0.01 0.01 0.02 0.00 0.00 0.00 0.00 0.00 0.00 0.00 0.00 0.00 0.00 0.00 0.00 0.00 0.00 0.00 0.00 0.00 0.00 0.00 0.00 0.00 0.00 0.00 0.00 0.00 0.00 0.01 0.02 0.03 0.02 0.02 0.02 0.02 0.02 0.02 0.02
0.04 0.04 0.02 0.01 0.01 0.01 0.01 0.00 0.00 0.00 0.00 0.00 0.00 0.00 0.00 0.00 0.00 0.00 0.00 0.00 0.00 0.00 0.00 0.00 0.00 0.00 0.00 0.00 0.00 0.00 0.00 0.00 0.00 0.00 0.01 0.02 0.02 0.01 0.02 0.02 0.02 0.02 0.03
0.03 0.03 0.02 0.01 0.01 0.01 0.01 0.00 0.00 0.00 0.00 0.00 0.00 0.00 0.00 0.00 0.00 0.00 0.00 0.00 0.00 0.00 0.00 0.00 0.00 0.00 0.00 0.00 0.00 0.00 0.00 0.01 0.01 0.00 0.00 0.01 0.01 0.02 0.02 0.02 0.02 0.02 0.03
0.03 0.02 0.02 0.02 0.01 0.01 0.01 0.01 0.00 0.00 0.00 0.00 0.00 0.00 0.00 0.00 0.00 0.00 0.00 0.00 0.00 0.00 0.00 0.00 0.00 0.00 0.00 0.00 0.00 0.00 0.01 0.01 0.01 0.01 0.01 0.01 0.01 0.01 0.02 0.03 0.03 0.03 0.03
0.03 0.03 0.02 0.02 0.02 0.01 0.01 0.01 0.00 0.00 0.00 0.00 0.00 0.00 0.00 0.00 0.00 0.00 0.00 0.00 0.00 0.00 0.00 0.00 0.00 0.00 0.00 0.00 0.00 0.00 0.01 0.00 0.01 0.00 0.01 0.02 0.02 0.03 0.03 0.03 0.04 0.03 0.03
0.04 0.03 0.02 0.02 0.02 0.01 0.01 0.00 0.00 0.00 0.00 0.00 0.00 0.00 0.00 0.00 0.00 0.00 0.00 0.00 0.00 0.00 0.00 0.00 0.00 0.00 0.00 0.00 0.00 0.00 0.00 0.00 0.01 0.01 0.01 0.01 0.02 0.04 0.04 0.03 0.03 0.03 0.03
0.04 0.03 0.02 0.01 0.01 0.01 0.00 0.00 0.00 0.00 0.01 0.01 0.00 0.01 0.01 0.01 0.01 0.01 0.00 0.00 0.00 0.00 0.00 0.00 0.00 0.00 0.00 0.00 0.00 0.00 0.00 0.00 0.00 0.00 0.01 0.01 0.01 0.01 0.01 0.02 0.02 0.02 0.02
0.03 0.03 0.02 0.01 0.00 0.00 0.00 0.01 0.00 0.00 0.00 0.01 0.01 0.01 0.01 0.01 0.01 0.01 0.01 0.01 0.00 0.00 0.00 0.00 0.00 0.00 0.00 0.00 0.00 0.00 0.00 0.00 0.00 0.00 0.01 0.01 0.00 0.00 0.00 0.00 0.00 0.01 0.02
0.02 0.02 0.02 0.01 0.00 0.00 0.00 0.01 0.01 0.00 0.00 0.00 0.01 0.01 0.01 0.02 0.02 0.02 0.02 0.01 0.01 0.00 0.00 0.00 0.00 0.00 0.00 0.00 0.00 0.00 0.00 0.00 0.00 0.00 0.00 0.00 0.00 0.00 0.00 0.00 0.00 0.01 0.01
0.01 0.01 0.01 0.01 0.00 0.00 0.00 0.01 0.01 0.00 0.00 0.00 0.01 0.02 0.02 0.02 0.01 0.01 0.02 0.01 0.01 0.00 0.00 0.00 0.00 0.00 0.00 0.00 0.00 0.00 0.00 0.00 0.01 0.00 0.00 0.00 0.00 0.00 0.00 0.00 0.00 0.00 0.01
0.00 0.01 0.01 0.01 0.01 0.00 0.00 0.00 0.00 0.00 0.00 0.00 0.01 0.01 0.02 0.02 0.02 0.02 0.01 0.01 0.00 0.00 0.00 0.00 0.00 0.00 0.00 0.00 0.00 0.00 0.00 0.00 0.00 0.00 0.00 0.00 0.00 0.00 0.00 0.00 0.00 0.00 0.01
0.00 0.01 0.00 0.01 0.01 0.01 0.00 0.00 0.00 0.00 0.00 0.01 0.01 0.01 0.01 0.02 0.02 0.02 0.01 0.00 0.00 0.00 0.00 0.00 0.00 0.00 0.00 0.00 0.00 0.00 0.00 0.00 0.00 0.00 0.01 0.01 0.00 0.01 0.00 0.00 0.00 0.00 0.00
0.00 0.01 0.01 0.00 0.00 0.00 0.00 0.00 0.00 0.00 0.00 0.00 0.01 0.01 0.01 0.01 0.01 0.01 0.01 0.00 0.00 0.00 0.00 0.00 0.00 0.00 0.00 0.00 0.00 0.00 0.00 0.00 0.00 0.00 0.01 0.01 0.01 0.01 0.01 0.01 0.01 0.00 0.00
0.00 0.01 0.01 0.00 0.00 0.00 0.00 0.00 0.01 0.01 0.00 0.00 0.01 0.01 0.01 0.02 0.02 0.02 0.01 0.01 0.01 0.00 0.00 0.00 0.00 0.00 0.00 0.00 0.00 0.00 0.00 0.00 0.00 0.00 0.00 0.00 0.00 0.00 0.00 0.00 0.00 0.00 0.00
0.00 0.01 0.01 0.01 0.00 0.00 0.00 0.00 0.01 0.01 0.01 0.00 0.00 0.01 0.01 0.01 0.02 0.02 0.02 0.02 0.01 0.01 0.01 0.01 0.01 0.00 0.00 0.00 0.00 0.00 0.00 0.00 0.00 0.01 0.00 0.00 0.00 0.00 0.00 0.00 0.00 0.00 0.00
0.00 0.00 0.00 0.00 0.00 0.00 0.01 0.01 0.00 0.00 0.00 0.00 0.00 0.00 0.01 0.01 0.01 0.01 0.01 0.01 0.01 0.01 0.00 0.01 0.01 0.00 0.00 0.00 0.00 0.00 0.00 0.00 0.00 0.01 0.00 0.00 0.00 0.00 0.00 0.00 0.00 0.00 0.00
0.00 0.00 0.00 0.00 0.00 0.00 0.01 0.01 0.00 0.00 0.00 0.00 0.00 0.00 0.00 0.01 0.01 0.01 0.00 0.01 0.00 0.00 0.00 0.01 0.01 0.00 0.00 0.00 0.00 0.00 0.00 0.00 0.00 0.00 0.01 0.01 0.00 0.00 0.00 0.00 0.00 0.00 0.00
0.00 0.00 0.00 0.00 0.00 0.00 0.00 0.01 0.01 0.00 0.00 0.00 0.00 0.00 0.00 0.00 0.00 0.00 0.00 0.00 0.00 0.00 0.01 0.01 0.01 0.00 0.00 0.00 0.00 0.00 0.00 0.00 0.00 0.00 0.00 0.00 0.00 0.00 0.00 0.00 0.00 0.00 0.00
0.00 0.00 0.00 0.01 0.01 0.00 0.00 0.00 0.00 0.00 0.00 0.00 0.00 0.00 0.01 0.00 0.00 0.00 0.01 0.00 0.00 0.01 0.01 0.01 0.00 0.00 0.00 0.00 0.00 0.00 0.00 0.00 0.00 0.00 0.00 0.00 0.00 0.00 0.00 0.00 0.00 0.00 0.00
0.00 0.00 0.00 0.00 0.01 0.01 0.00 0.00 0.00 0.00 0.00 0.01 0.01 0.01 0.00 0.01 0.00 0.00 0.00 0.01 0.01 0.01 0.00 0.00 0.00 0.00 0.00 0.00 0.00 0.00 0.00 0.00 0.00 0.00 0.00 0.00 0.00 0.00 0.00 0.00 0.00 0.00 0.00
0.01 0.00 0.00 0.00 0.00 0.01 0.01 0.01 0.01 0.01 0.01 0.01 0.01 0.01 0.00 0.00 0.00 0.00 0.00 0.01 0.00 0.00 0.00 0.00 0.00 0.00 0.00 0.00 0.00 0.00 0.00 0.00 0.00 0.00 0.00 0.00 0.00 0.00 0.00 0.00 0.00 0.00 0.00
0.00 0.00 0.00 0.00 0.00 0.01 0.01 0.01 0.01 0.01 0.01 0.01 0.01 0.01 0.01 0.00 0.00 0.01 0.00 0.00 0.00 0.00 0.00 0.00 0.00 0.00 0.00 0.00 0.00 0.00 0.00 0.00 0.00 0.00 0.00 0.00 0.00 0.00 0.00 0.00 0.00 0.00 0.00
0.00 0.00 0.00 0.00 0.01 0.01 0.01 0.01 0.01 0.01 0.01 0.01 0.01 0.01 0.01 0.01 0.01 0.01 0.00 0.00 0.00 0.00 0.00 0.00 0.00 0.00 0.00 0.00 0.00 0.00 0.00 0.00 0.00 0.00 0.00 0.00 0.00 0.00 0.00 0.00 0.00 0.00 0.00
0.00 0.00 0.01 0.01 0.01 0.01 0.02 0.01 0.01 0.01 0.01 0.01 0.01 0.01 0.01 0.01 0.01 0.00 0.00 0.00 0.00 0.00 0.00 0.00 0.00 0.00 0.00 0.00 0.00 0.00 0.00 0.00 0.00 0.00 0.00 0.00 0.00 0.00 0.00 0.00 0.00 0.00 0.00
0.00 0.00 0.00 0.00 0.01 0.01 0.02 0.02 0.02 0.01 0.02 0.01 0.01 0.01 0.01 0.01 0.01 0.00 0.00 0.00 0.00 0.00 0.00 0.00 0.00 0.00 0.00 0.00 0.00 0.00 0.00 0.00 0.00 0.00 0.00 0.00 0.00 0.00 0.00 0.00 0.00 0.00 0.00
MSLP
1019.25 1019.40 1019.57 1019.74 1019.90 1020.04 1020.17 1020.30 1020.44 1020.59 1020.75 1020.90 1021.02 1021.10 1021.13 1021.08 1020.97 1020.81 1020.60 1020.37 1020.13 1019.89 1019.64 1019.39 1019.12 1018.84 1018.55 1018.25 1017.95 1017.65 1017.39 1017.16 1016.96 1016.80 1016.66 1016.54 1016.43 1016.32 1016.22 1016.14 1016.08 1016.07 1016.11
1019.34 1019.57 1019.82 1020.06 1020.26 1020.43 1020.56 1020.67 1020.78 1020.89 1021.01 1021.12 1021.21 1021.28 1021.29 1021.26 1021.16 1021.03 1020.86 1020.68 1020.48 1020.27 1020.06 1019.83 1019.58 1019.31 1019.02 1018.71 1018.41 1018.13 1017.88 1017.68 1017.52 1017.39 1017.28 1017.18 1017.08 1016.95 1016.82 1016.69 1016.59 1016.52 1016.50
1019.43 1019.72 1020.04 1020.34 1020.58 1020.77 1020.90 1020.99 1021.07 1021.14 1021.22 1021.29 1021.36 1021.41 1021.43 1021.40 1021.34 1021.24 1021.12 1020.98 1020.82 1020.66 1020.48 1020.28 1020.05 1019.78 1019.50 1019.20 1018.90 1018.63 1018.41 1018.24 1018.11 1018.02 1017.94 1017.87 1017.77 1017.64 1017.49 1017.32 1017.17 1017.05 1016.99
1019.46 1019.83 1020.21 1020.55 1020.83 1021.03 1021.16 1021.24 1021.28 1021.33 1021.37 1021.43 1021.48 1021.53 1021.56 1021.55 1021.52 1021.46 1021.38 1021.29 1021.18 1021.06 1020.91 1020.73 1020.52 1020.27 1019.99 1019.70 1019.42 1019.17 1018.97 1018.82 1018.73 1018.67 1018.63 1018.57 1018.48 1018.35 1018.18 1017.99 1017.81 1017.65 1017.53
1019.44 1019.87 1020.30 1020.68 1020.99 1021.20 1021.33 1021.39 1021.42 1021.45 1021.48 1021.53 1021.59 1021.64 1021.69 1021.71 1021.72 1021.70 1021.66 1021.61 1021.55 1021.46 1021.34 1021.19 1020.99 1020.76 1020.49 1020.22 1019.96 1019.73 1019.56 1019.44 1019.37 1019.34 1019.31 1019.27 1019.19 1019.06 1018.89 1018.68 1018.47 1018.27 1018.11
1019.36 1019.84 1020.32 1020.74 1021.07 1021.29 1021.42 1021.48 1021.51 1021.53 1021.57 1021.62 1021.69 1021.77 1021.84 1021.90 1021.94 1021.96 1021.96 1021.95 1021.91 1021.86 1021.77 1021.64 1021.47 1021.26 1021.02 1020.77 1020.53 1020.32 1020.17 1020.07 1020.02 1020.00 1019.99 1019.95 1019.87 1019.75 1019.57 1019.35 1019.12 1018.90 1018.71
1019.25 1019.79 1020.31 1020.76 1021.11 1021.34 1021.47 1021.54 1021.57 1021.60 1021.65 1021.72 1021.81 1021.92 1022.02 1022.11 1022.18 1022.23 1022.27 1022.28 1022.28 1022.25 1022.19 1022.10 1021.95 1021.77 1021.56 1021.34 1021.13 1020.95 1020.81 1020.72 1020.67 1020.65 1020.63 1020.60 1020.52 1020.39 1020.21 1019.99 1019.76 1019.52 1019.30
1019.16 1019.75 1020.31 1020.78 1021.14 1021.38 1021.52 1021.60 1021.64 1021.69 1021.76 1021.85 1021.97 1022.10 1022.23 1022.34 1022.44 1022.51 1022.57 1022.61 1022.63 1022.63 1022.61 1022.54 1022.44 1022.31 1022.14 1021.95 1021.77 1021.61 1021.48 1021.39 1021.33 1021.30 1021.26 1021.21 1021.12 1020.99 1020.82 1020.61 1020.37 1020.13 1019.89
1019.12 1019.75 1020.33 1020.82 1021.19 1021.44 1021.59 1021.68 1021.75 1021.82 1021.91 1022.03 1022.17 1022.32 1022.46 1022.59 1022.70 1022.79 1022.87 1022.93 1022.97 1023.00 1023.02 1023.00 1022.95 1022.86 1022.74 1022.60 1022.45 1022.31 1022.19 1022.08 1022.00 1021.94 1021.87 1021.80 1021.69 1021.56 1021.39 1021.19 1020.97 1020.73 1020.49
1019.13 1019.79 1020.39 1020.89 1021.26 1021.52 1021.69 1021.79 1021.88 1021.98 1022.10 1022.24 1022.40 1022.57 1022.73 1022.87 1022.99 1023.08 1023.17 1023.24 1023.31 1023.38 1023.44 1023.47 1023.48 1023.45 1023.39 1023.30 1023.18 1023.06 1022.93 1022.81 1022.70 1022.59 1022.49 1022.38 1022.26 1022.12 1021.95 1021.77 1021.56 1021.34 1021.09
1019.18 1019.85 1020.45 1020.95 1021.33 1021.59 1021.78 1021.91 1022.03 1022.16 1022.31 1022.49 1022.67 1022.86 1023.03 1023.17 1023.29 1023.40 1023.49 1023.58 1023.67 1023.78 1023.88 1023.97 1024.03 1024.07 1024.07 1024.02 1023.94 1023.83 1023.70 1023.56 1023.41 1023.27 1023.13 1022.98 1022.84 1022.68 1022.52 1022.35 1022.17 1021.95 1021.71
1019.21 1019.88 1020.47 1020.95 1021.33 1021.61 1021.82 1021.99 1022.16 1022.34 1022.53 1022.75 1022.96 1023.17 1023.36 1023.51 1023.64 1023.74 1023.85 1023.95 1024.07 1024.20 1024.35 1024.49 1024.61 1024.70 1024.75 1024.75 1024.70 1024.61 1024.47 1024.32 1024.14 1023.96 1023.78 1023.61 1023.44 1023.28 1023.12 1022.95 1022.78 1022.58 1022.34
1019.16 1019.80 1020.37 1020.84 1021.22 1021.52 1021.77 1022.00 1022.22 1022.46 1022.73 1022.99 1023.26 1023.50 1023.71 1023.88 1024.02 1024.14 1024.25 1024.37 1024.51 1024.67 1024.85 1025.03 1025.19 1025.33 1025.42 1025.45 1025.42 1025.34 1025.22 1025.05 1024.86 1024.65 1024.45 1024.25 1024.07 1023.89 1023.73 1023.57 1023.40 1023.21 1022.97
1018.99 1019.58 1020.11 1020.57 1020.96 1021.29 1021.59 1021.88 1022.19 1022.52 1022.86 1023.20 1023.53 1023.82 1024.07 1024.28 1024.44 1024.57 1024.70 1024.83 1024.98 1025.16 1025.35 1025.55 1025.74 1025.90 1026.01 1026.07 1026.06 1026.00 1025.88 1025.72 1025.53 1025.32 1025.11 1024.90 1024.70 1024.52 1024.35 1024.19 1024.02 1023.82 1023.58
1018.66 1019.20 1019.69 1020.13 1020.53 1020.90 1021.26 1021.64 1022.05 1022.47 1022.91 1023.35 1023.75 1024.11 1024.41 1024.66 1024.85 1025.01 1025.15 1025.30 1025.45 1025.63 1025.83 1026.02 1026.21 1026.37 1026.49 1026.56 1026.57 1026.52 1026.42 1026.28 1026.11 1025.92 1025.72 1025.52 1025.33 1025.14 1024.97 1024.79 1024.60 1024.39 1024.13
1018.19 1018.68 1019.13 1019.56 1019.97 1020.38 1020.82 1021.29 1021.79 1022.32 1022.87 1023.40 1023.89 1024.32 1024.69 1024.99 1025.22 1025.41 1025.57 1025.72 1025.88 1026.05 1026.23 1026.41 1026.58 1026.73 1026.84 1026.91 1026.92 1026.90 1026.83 1026.72 1026.59 1026.44 1026.27 1026.09 1025.91 1025.73 1025.54 1025.34 1025.13 1024.89 1024.61
1017.64 1018.07 1018.48 1018.90 1019.33 1019.78 1020.28 1020.84 1021.44 1022.07 1022.71 1023.33 1023.91 1024.42 1024.85 1025.20 1025.48 1025.70 1025.89 1026.05 1026.21 1026.37 1026.52 1026.68 1026.82 1026.94 1027.03 1027.10 1027.12 1027.12 1027.09 1027.03 1026.95 1026.85 1026.73 1026.60 1026.44 1026.26 1026.06 1025.83 1025.58 1025.31 1024.99
1017.08 1017.45 1017.83 1018.23 1018.66 1019.15 1019.71 1020.33 1021.00 1021.71 1022.43 1023.12 1023.77 1024.35 1024.84 1025.25 1025.58 1025.84 1026.06 1026.24 1026.40 1026.55 1026.69 1026.82 1026.93 1027.03 1027.11 1027.16 1027.20 1027.23 1027.24 1027.23 1027.21 1027.17 1027.11 1027.01 1026.88 1026.71 1026.49 1026.24 1025.95 1025.62 1025.27
1016.56 1016.88 1017.23 1017.61 1018.04 1018.55 1019.13 1019.79 1020.51 1021.27 1022.03 1022.77 1023.47 1024.10 1024.64 1025.10 1025.48 1025.79 1026.04 1026.26 1026.44 1026.60 1026.73 1026.85 1026.95 1027.03 1027.10 1027.16 1027.21 1027.26 1027.31 1027.36 1027.40 1027.42 1027.41 1027.35 1027.24 1027.07 1026.84 1026.55 1026.22 1025.84 1025.44
1016.14 1016.42 1016.73 1017.08 1017.50 1018.00 1018.59 1019.25 1019.98 1020.75 1021.53 1022.29 1023.01 1023.67 1024.25 1024.75 1025.18 1025.55 1025.85 1026.12 1026.34 1026.53 1026.69 1026.82 1026.93 1027.01 1027.08 1027.15 1027.22 1027.29 1027.38 1027.47 1027.55 1027.61 1027.64 1027.61 1027.52 1027.35 1027.10 1026.78 1026.40 1025.98 1025.53
1015.84 1016.08 1016.34 1016.66 1017.05 1017.52 1018.08 1018.72 1019.43 1020.17 1020.94 1021.69 1022.41 1023.08 1023.70 1024.24 1024.72 1025.15 1025.53 1025.86 1026.14 1026.39 1026.60 1026.77 1026.91 1027.02 1027.11 1027.19 1027.27 1027.37 1027.47 1027.58 1027.69 1027.78 1027.82 1027.81 1027.71 1027.54 1027.27 1026.92 1026.50 1026.04 1025.56
1015.66 1015.85 1016.07 1016.35 1016.69 1017.12 1017.63 1018.22 1018.88 1019.58 1020.31 1021.03 1021.74 1022.41 1023.04 1023.63 1024.17 1024.66 1025.12 1025.53 1025.90 1026.23 1026.52 1026.75 1026.94 1027.09 1027.21 1027.31 1027.41 1027.51 1027.61 1027.72 1027.83 1027.91 1027.95 1027.93 1027.83 1027.64 1027.36 1026.99 1026.55 1026.06 1025.56
1015.57 1015.72 1015.89 1016.12 1016.41 1016.78 1017.23 1017.76 1018.35 1019.00 1019.67 1020.36 1021.05 1021.72 1022.37 1022.99 1023.59 1024.16 1024.70 1025.20 1025.67 1026.09 1026.46 1026.77 1027.02 1027.22 1027.38 1027.50 1027.61 1027.70 1027.79 1027.89 1027.96 1028.02 1028.04 1028.00 1027.88 1027.68 1027.38 1027.01 1026.57 1026.08 1025.56
1015.55 1015.66 1015.80 1015.97 1016.21 1016.52 1016.90 1017.36 1017.89 1018.47 1019.10 1019.75 1020.42 1021.08 1021.75 1022.41 1023.06 1023.70 1024.33 1024.92 1025.48 1025.99 1026.45 1026.84 1027.16 1027.41 1027.60 1027.74 1027.85 1027.93 1027.99 1028.04 1028.08 1028.09 1028.07 1028.00 1027.87 1027.66 1027.37 1027.01 1026.59 1026.12 1025.62
1015.61 1015.69 1015.78 1015.91 1016.10 1016.34 1016.66 1017.06 1017.53 1018.06 1018.64 1019.25 1019.90 1020.57 1021.25 1021.94 1022.64 1023.34 1024.03 1024.71 1025.35 1025.94 1026.47 1026.93 1027.31 1027.61 1027.83 1027.98 1028.08 1028.14 1028.17 1028.17 1028.16 1028.13 1028.07 1027.97 1027.83 1027.62 1027.36 1027.03 1026.65 1026.23 1025.77
1015.74 1015.80 1015.87 1015.96 1016.09 1016.29 1016.55 1016.89 1017.31 1017.79 1018.33 1018.92 1019.55 1020.22 1020.91 1021.63 1022.36 1023.10 1023.84 1024.57 1025.26 1025.91 1026.50 1027.01 1027.43 1027.77 1028.01 1028.17 1028.27 1028.30 1028.29 1028.26 1028.20 1028.13 1028.04 1027.92 1027.78 1027.60 1027.38 1027.11 1026.79 1026.43 1026.03
Thickness
5725 5727 5726 5726 5726 5726 5725 5724 5723 5723 5722 5722 5721 5720 5719 5720 5719 5718 5718 5718 5720 5720 5720 5721 5720 5719 5719 5718 5719 5718 5716 5716 5716 5714 5712 5711 5712 5710 5708 5709 5709 5709 5709
5723 5723 5723 5724 5725 5724 5723 5722 5722 5721 5720 5719 5720 5718 5717 5717 5716 5715 5715 5715 5716 5717 5718 5718 5718 5716 5715 5715 5715 5714 5714 5713 5713 5713 5710 5706 5705 5705 5707 5706 5705 5706 5706
5723 5722 5722 5722 5722 5721 5721 5721 5720 5719 5718 5717 5717 5715 5714 5714 5714 5713 5712 5712 5712 5713 5714 5714 5715 5714 5714 5712 5711 5711 5710 5709 5711 5711 5709 5704 5701 5702 5703 5703 5703 5702 5701
5724 5723 5722 5721 5721 5721 5720 5720 5719 5719 5717 5716 5716 5715 5712 5711 5711 5711 5710 5710 5709 5710 5710 5710 5711 5711 5711 5710 5710 5709 5708 5706 5706 5706 5706 5706 5703 5701 5698 5700 5700 5699 5698
5726 5724 5723 5722 5722 5721 5719 5719 5718 5717 5716 5715 5713 5712 5712 5711 5710 5709 5708 5709 5707 5707 5707 5707 5708 5708 5707 5706 5705 5705 5705 5705 5703 5703 5702 5701 5700 5703 5698 5695 5694 5696 5695
5727 5725 5724 5723 5721 5720 5717 5716 5715 5714 5713 5713 5713 5712 5710 5708 5707 5706 5706 5706 5706 5705 5704 5704 5705 5704 5704 5703 5702 5702 5701 5701 5699 5700 5699 5697 5696 5696 5695 5693 5691 5690 5690
5727 5725 5722 5719 5718 5716 5715 5714 5713 5712 5712 5712 5712 5711 5709 5707 5706 5705 5704 5704 5703 5702 5702 5702 5702 5701 5700 5699 5699 5699 5698 5697 5696 5695 5695 5694 5694 5694 5693 5692 5690 5688 5688
5727 5724 5723 5720 5718 5716 5714 5713 5712 5710 5710 5710 5710 5710 5708 5706 5705 5703 5703 5702 5701 5700 5699 5698 5698 5697 5696 5696 5695 5696 5695 5694 5693 5692 5691 5690 5690 5690 5689 5688 5687 5686 5686
5725 5724 5722 5720 5718 5716 5714 5714 5712 5709 5708 5708 5707 5707 5706 5703 5702 5701 5700 5699 5698 5696 5695 5695 5695 5693 5692 5692 5692 5691 5691 5690 5690 5689 5688 5687 5687 5686 5685 5685 5684 5682 5679
5725 5723 5721 5720 5718 5716 5714 5713 5711 5709 5707 5707 5705 5703 5702 5700 5699 5698 5697 5696 5695 5693 5692 5692 5691 5690 5689 5688 5687 5687 5686 5686 5685 5684 5684 5683 5683 5681 5680 5680 5679 5679 5676
5724 5722 5720 5719 5718 5716 5713 5710 5709 5707 5706 5705 5703 5701 5699 5697 5696 5695 5693 5692 5691 5690 5689 5688 5687 5687 5686 5685 5684 5684 5682 5682 5682 5681 5680 5678 5677 5677 5676 5675 5674 5673 5671
5724 5722 5719 5717 5715 5713 5711 5709 5707 5706 5704 5702 5701 5699 5696 5694 5693 5691 5690 5689 5688 5687 5686 5685 5684 5683 5682 5681 5681 5679 5678 5678 5677 5676 5675 5674 5672 5671 5671 5669 5668 5667 5666
5722 5720 5717 5714 5713 5712 5710 5708 5706 5704 5702 5700 5697 5695 5693 5691 5689 5688 5686 5685 5684 5683 5681 5680 5679 5678 5677 5676 5676 5675 5674 5673 5673 5672 5670 5669 5668 5666 5665 5663 5663 5661 5660
5720 5718 5715 5713 5712 5711 5709 5707 5704 5702 5699 5697 5694 5692 5690 5687 5686 5684 5682 5681 5680 5679 5677 5676 5675 5674 5673 5672 5672 5671 5670 5669 5667 5666 5664 5663 5661 5660 5659 5658 5656 5655 5653
5718 5716 5713 5713 5711 5709 5707 5705 5702 5700 5697 5694 5691 5689 5687 5684 5682 5680 5678 5676 5674 5673 5673 5672 5670 5669 5668 5667 5666 5666 5664 5663 5662 5660 5658 5654 5651 5648 5648 5648 5647 5647 5646
5717 5716 5713 5711 5709 5708 5705 5701 5699 5697 5695 5692 5689 5685 5682 5679 5677 5675 5673 5671 5668 5668 5667 5667 5666 5663 5662 5658 5657 5658 5658 5658 5656 5654 5652 5648 5645 5641 5638 5636 5634 5634 5635
5718 5715 5714 5712 5710 5708 5705 5700 5697 5695 5692 5689 5685 5681 5679 5676 5673 5671 5668 5665 5663 5663 5662 5662 5660 5658 5655 5652 5651 5650 5652 5651 5650 5648 5646 5643 5639 5636 5634 5631 5628 5626 5622
5718 5716 5715 5713 5711 5708 5704 5701 5697 5693 5689 5686 5682 5679 5676 5673 5670 5667 5665 5663 5661 5658 5657 5657 5655 5653 5649 5646 5645 5644 5646 5645 5643 5641 5638 5636 5632 5628 5625 5625 5623 5620 5616
5720 5717 5715 5712 5709 5705 5702 5698 5694 5690 5686 5683 5679 5676 5673 5670 5667 5664 5661 5660 5658 5655 5654 5652 5650 5648 5645 5641 5640 5638 5640 5639 5636 5633 5629 5626 5623 5617 5615 5615 5614 5612 5608
5717 5714 5711 5709 5705 5701 5699 5695 5691 5687 5684 5680 5677 5674 5670 5667 5664 5661 5658 5656 5654 5652 5650 5648 5646 5644 5642 5636 5634 5632 5635 5633 5630 5625 5621 5615 5612 5608 5605 5606 5604 5602 5599
5712 5709 5707 5704 5701 5698 5695 5691 5688 5684 5682 5678 5674 5669 5666 5663 5660 5657 5654 5652 5650 5648 5646 5644 5641 5639 5636 5631 5628 5625 5627 5625 5622 5618 5614 5609 5602 5598 5595 5593 5592 5589 5586
5706 5705 5702 5699 5697 5694 5692 5688 5684 5682 5677 5673 5669 5666 5663 5660 5656 5653 5650 5648 5646 5643 5641 5638 5636 5633 5630 5625 5621 5618 5616 5614 5613 5609 5605 5600 5593 5589 5586 5583 5580 5577 5575
5701 5700 5697 5694 5691 5690 5687 5684 5679 5676 5673 5668 5664 5662 5659 5656 5653 5650 5646 5644 5641 5639 5637 5634 5631 5628 5624 5620 5614 5610 5607 5604 5601 5599 5593 5588 5584 5580 5578 5574 5570 5567 5566
5696 5695 5692 5689 5686 5683 5681 5680 5676 5672 5669 5665 5662 5658 5655 5652 5648 5645 5643 5640 5637 5635 5632 5629 5626 5623 5619 5614 5610 5605 5600 5595 5592 5589 5584 5579 5575 5572 5568 5565 5562 5559 5555
5692 5690 5688 5685 5682 5679 5676 5674 5671 5668 5665 5662 5658 5654 5650 5647 5643 5639 5637 5635 5632 5630 5627 5624 5621 5617 5613 5607 5602 5598 5595 5590 5586 5581 5577 5574 5570 5566 5562 5558 5553 5549 5545
5688 5686 5684 5681 5678 5675 5671 5668 5666 5664 5661 5657 5654 5649 5645 5641 5638 5634 5629 5624 5623 5619 5616 5614 5611 5608 5603 5597 5592 5587 5583 5578 5574 5571 5569 5566 5561 5557 5552 5548 5543 5538 5533